Location: Asheville, NC
(35.6000°N, 82.5500°W)
Time: 15:15:57
(UTC-04:00)

Vanguard 1 - Pass Details

Date: 14 March 2018
Orbit: 650 x 3833 km, 34.3° (Epoch: 24 June)

Event Time Altitude Azimuth Distance (km) Brightness Sun altitude
Rises 15:23:46 0° 285° (WNW) 7,897 14.9 44.9°
Reaches altitude 10° 15:29:35 10° 283° (WNW) 6,675 14.7 44.2°
Maximum altitude 15:49:21 60° 211° (SSW) 2,843 14.1 41.4°
Drops below altitude 10° 16:00:34 10° 134° (SE) 4,004 13.2 39.8°
Sets 16:03:09 0° 130° (SE) 4,675 13.5 39.4°
